User: anonymous   Login
Location: Spor
(46.2167°N, 11.0500°E)
Time: 17:08:24
(UTC+00:00)
Language:

STARLINK-31 - Orbit

View from above orbital plane
View from above orbital plane
View from above satellite
View from above satellite

Ground track
Ground track

The orbit data is extracted from the following two-line orbital elements,

1 44235C 19029A   20221.49905287  .00961598  00000-0  37993-2 0  2219
2 44235  52.9915 316.0661 0001263  79.1921 348.7010 15.85119609    14
Epoch (UTC): 08 August 2020 11:58:38
Eccentricity: 0.0001263
inclination: 52.9915°
perigee height: 315 km
apogee height: 317 km
right ascension of ascending node: 316.0661°
argument of perigee: 79.1921°
revolutions per day: 15.85119609
mean anomaly at epoch: 348.7010°
orbit number at epoch: 1

The dashed part of the orbit path shows where the satellite is in the earth's shadow,  

DLR